HYS890 LRIA-LOWW

Flight info

Callsign HYS890
Flight time N/A
Altitude 10000
Route ARPIG P133 TOMUC/N0440F380 DCT HUMOR DCT UCJOL DCT IZDUW DCT BALUX DCT TORNO DCT NATEX NATEX2W
Aircraft A20N/M-SDE2E3FGHIRWXY/LB1

Departure

Time 2026-04-17 23:08
Airport Iaşi International Airport (LRIA)

Arrival

Time N/A
Airport Vienna International Airport (LOWW)
Time Latitude Longitude Altitude Speed Heading
2026-04-17 22:15 47.17686 27.61876 388 ft 0 kts 247°
2026-04-17 22:34 47.17713 27.61859 388 ft 0 kts 247°
2026-04-17 22:42 47.17686 27.61876 388 ft 0 kts 247°
2026-04-17 22:53 47.17700 27.61854 388 ft 0 kts 236°
2026-04-17 22:58 47.17715 27.61878 388 ft 4 kts 190°
2026-04-17 22:58 47.17734 27.61866 389 ft 4 kts 132°
2026-04-17 22:59 47.17749 27.61844 389 ft 1 kts 152°
2026-04-17 23:04 47.17744 27.61879 389 ft 7 kts 71°
2026-04-17 23:04 47.17770 27.61968 390 ft 12 kts 66°
2026-04-17 23:04 47.17810 27.62099 387 ft 18 kts 63°
2026-04-17 23:05 47.17802 27.62279 368 ft 21 kts 141°
2026-04-17 23:05 47.17664 27.62406 364 ft 26 kts 146°
2026-04-17 23:05 47.17497 27.62555 364 ft 30 kts 151°
2026-04-17 23:05 47.17303 27.62726 350 ft 35 kts 146°
2026-04-17 23:06 47.17138 27.62945 337 ft 11 kts 158°
2026-04-17 23:06 47.17114 27.62916 335 ft 11 kts 253°
2026-04-17 23:06 47.17129 27.62879 336 ft 0 kts 326°
2026-04-17 23:06 47.17133 27.62876 336 ft 2 kts 326°
2026-04-17 23:07 47.17159 27.62851 346 ft 19 kts 327°
2026-04-17 23:07 47.17486 27.62557 361 ft 89 kts 328°
2026-04-17 23:07 47.18180 27.61944 400 ft 140 kts 327°
2026-04-17 23:07 47.19087 27.61209 762 ft 157 kts 333°
2026-04-17 23:08 47.20071 27.60503 1445 ft 156 kts 331°
2026-04-17 23:08 47.21040 27.59786 2191 ft 157 kts 330°
2026-04-17 23:08 47.22059 27.59015 2840 ft 174 kts 331°
2026-04-17 23:08 47.23188 27.58153 3524 ft 192 kts 332°
2026-04-17 23:09 47.24374 27.57073 4119 ft 213 kts 314°
2026-04-17 23:09 47.25187 27.55136 4747 ft 234 kts 292°
2026-04-17 23:09 47.25762 27.52847 5726 ft 241 kts 290°
2026-04-17 23:09 47.26367 27.50526 6842 ft 244 kts 292°
2026-04-17 23:10 47.27060 27.48234 7932 ft 246 kts 295°
2026-04-17 23:10 47.27834 27.45945 9060 ft 248 kts 296°
2026-04-17 23:10 47.28641 27.43696 10165 ft 250 kts 297°
2026-04-17 23:10 47.29471 27.41432 11174 ft 252 kts 297°
2026-04-17 23:11 47.30309 27.39156 12174 ft 254 kts 297°
2026-04-17 23:11 47.31155 27.36853 13188 ft 256 kts 297°
2026-04-17 23:11 47.32006 27.34529 14164 ft 259 kts 297°
2026-04-17 23:11 47.32866 27.32172 15002 ft 263 kts 297°
2026-04-17 23:12 47.33738 27.29778 15860 ft 267 kts 297°
2026-04-17 23:12 47.34648 27.27272 16263 ft 289 kts 297°
2026-04-17 23:12 47.35637 27.24547 16513 ft 314 kts 297°
2026-04-17 23:12 47.37800 27.18585 17184 ft 349 kts 297°
2026-04-17 23:13 47.42641 27.05217 20350 ft 362 kts 297°
2026-04-17 23:13 47.47599 26.91441 23272 ft 375 kts 296°
2026-04-17 23:13 47.50829 26.77003 25556 ft 383 kts 272°
2026-04-17 23:13 47.50986 26.60789 27653 ft 394 kts 271°
2026-04-17 23:14 47.51142 26.44356 29469 ft 405 kts 271°
2026-04-17 23:14 47.51272 26.27464 31036 ft 415 kts 271°
2026-04-17 23:14 47.51376 26.10385 32888 ft 413 kts 270°
2026-04-17 23:14 47.51457 25.93473 34623 ft 409 kts 270°
2026-04-17 23:15 47.51436 25.76623 35923 ft 409 kts 270°
2026-04-17 23:15 47.51362 25.65524 36149 ft 407 kts 270°
2026-04-17 23:15 47.51102 25.32006 36154 ft 407 kts 270°
2026-04-17 23:16 47.50751 24.98633 36142 ft 406 kts 269°
2026-04-17 23:16 47.49589 24.65193 36141 ft 409 kts 267°
2026-04-17 23:17 47.48080 24.31679 36138 ft 408 kts 266°
2026-04-17 23:17 47.46468 23.98120 36125 ft 410 kts 266°
2026-04-17 23:18 47.44755 23.64488 36114 ft 411 kts 266°
2026-04-17 23:18 47.42946 23.30967 36111 ft 411 kts 266°
2026-04-17 23:19 47.41026 22.97183 36129 ft 412 kts 266°
2026-04-17 23:19 47.39021 22.63688 36132 ft 412 kts 266°
2026-04-17 23:20 47.36904 22.29991 36139 ft 413 kts 265°
2026-04-17 23:20 47.36105 22.17679 36132 ft 413 kts 265°
2026-04-17 23:21 47.35549 22.09239 36132 ft 413 kts 265°
2026-04-17 23:21 47.34988 22.00796 36128 ft 414 kts 265°
2026-04-17 23:22 47.34450 21.92406 36125 ft 413 kts 268°
2026-04-17 23:22 47.34481 21.83874 36124 ft 413 kts 272°
2026-04-17 23:23 47.34584 21.75397 36123 ft 414 kts 272°
2026-04-17 23:23 47.34776 21.53890 36125 ft 415 kts 271°
2026-04-17 23:24 47.34982 21.19004 36259 ft 445 kts 274°
2026-04-17 23:24 47.35039 21.00280 36133 ft 461 kts 274°
2026-04-17 23:24 47.35083 20.81343 36139 ft 461 kts 274°